DLH3WT LHBP-EDDF

Flight info

Callsign DLH3WT
Flight time 1h 18m
Altitude 34000
Route GILEP DCT ZOLKU DCT BEGLA DCT DITIS DCT RAPET T170 GAPLA T178 KERAX
Aircraft A321/M-SDE3FGHIRWY/LB1

Departure

Time 2026-05-04 04:12
Airport Budapest Liszt Ferenc International Airport (LHBP)

Arrival

Time 2026-05-04 05:31
Airport Frankfurt Main Airport (EDDF)
Time Latitude Longitude Altitude Speed Heading
2026-05-04 03:54 47.43622 19.25915 457 ft 0 kts 312°
2026-05-04 04:04 47.43611 19.25936 457 ft 4 kts 295°
2026-05-04 04:05 47.43606 19.25970 457 ft 4 kts 249°
2026-05-04 04:05 47.43620 19.26001 455 ft 4 kts 223°
2026-05-04 04:05 47.43626 19.26009 456 ft 1 kts 222°
2026-05-04 04:08 47.43623 19.26005 457 ft 3 kts 222°
2026-05-04 04:08 47.43599 19.25972 457 ft 6 kts 222°
2026-05-04 04:09 47.43564 19.25926 457 ft 7 kts 222°
2026-05-04 04:09 47.43522 19.25869 457 ft 9 kts 222°
2026-05-04 04:09 47.43493 19.25815 457 ft 6 kts 263°
2026-05-04 04:09 47.43517 19.25759 457 ft 9 kts 312°
2026-05-04 04:10 47.43546 19.25679 457 ft 9 kts 260°
2026-05-04 04:10 47.43497 19.25593 457 ft 13 kts 222°
2026-05-04 04:10 47.43425 19.25495 457 ft 15 kts 222°
2026-05-04 04:10 47.43346 19.25390 457 ft 16 kts 222°
2026-05-04 04:11 47.43263 19.25279 456 ft 16 kts 222°
2026-05-04 04:11 47.43176 19.25161 456 ft 18 kts 222°
2026-05-04 04:11 47.43097 19.25025 457 ft 18 kts 258°
2026-05-04 04:11 47.43148 19.24864 457 ft 19 kts 312°
2026-05-04 04:12 47.43283 19.24644 455 ft 57 kts 312°
2026-05-04 04:12 47.43716 19.23947 455 ft 125 kts 313°
2026-05-04 04:12 47.44429 19.22796 571 ft 168 kts 312°
2026-05-04 04:12 47.45203 19.21548 1367 ft 163 kts 311°
2026-05-04 04:13 47.45976 19.20294 1954 ft 170 kts 308°
2026-05-04 04:13 47.46822 19.18910 2199 ft 193 kts 309°
2026-05-04 04:13 47.47770 19.17362 2491 ft 212 kts 309°
2026-05-04 04:13 47.48760 19.15654 2737 ft 230 kts 300°
2026-05-04 04:14 47.49395 19.13447 3253 ft 232 kts 279°
2026-05-04 04:14 47.49475 19.11111 3834 ft 231 kts 259°
2026-05-04 04:14 47.48998 19.08818 4204 ft 241 kts 239°
2026-05-04 04:14 47.47904 19.06839 4535 ft 256 kts 216°
2026-05-04 04:15 47.46332 19.05592 5164 ft 260 kts 197°
2026-05-04 04:15 47.44660 19.04799 5801 ft 264 kts 197°
2026-05-04 04:15 47.42891 19.03969 6463 ft 270 kts 197°
2026-05-04 04:15 47.41089 19.03126 7094 ft 274 kts 197°
2026-05-04 04:16 47.39345 19.01950 7695 ft 279 kts 216°
2026-05-04 04:16 47.38040 18.99829 8288 ft 285 kts 242°
2026-05-04 04:16 47.37462 18.97037 8902 ft 289 kts 268°
2026-05-04 04:16 47.37764 18.94119 9526 ft 291 kts 292°
2026-05-04 04:17 47.38536 18.91342 10161 ft 295 kts 294°
2026-05-04 04:17 47.39359 18.88444 10339 ft 316 kts 294°
2026-05-04 04:17 47.40234 18.85360 10470 ft 336 kts 294°
2026-05-04 04:17 47.41156 18.82083 10655 ft 352 kts 293°
2026-05-04 04:18 47.42093 18.78741 11120 ft 358 kts 293°
2026-05-04 04:18 47.43046 18.75321 11676 ft 362 kts 293°
2026-05-04 04:18 47.44006 18.71865 12242 ft 365 kts 293°
2026-05-04 04:18 47.44972 18.68370 12824 ft 368 kts 293°
2026-05-04 04:19 47.45944 18.64840 13388 ft 372 kts 293°
2026-05-04 04:19 47.46923 18.61281 13964 ft 375 kts 293°
2026-05-04 04:19 47.47871 18.57672 14475 ft 378 kts 292°
2026-05-04 04:19 47.48786 18.54024 15007 ft 380 kts 291°
2026-05-04 04:20 47.49691 18.50323 15527 ft 382 kts 291°
2026-05-04 04:20 47.50580 18.46664 16058 ft 384 kts 291°
2026-05-04 04:20 47.51488 18.42934 16591 ft 387 kts 291°
2026-05-04 04:20 47.52404 18.39180 17120 ft 389 kts 291°
2026-05-04 04:21 47.53329 18.35406 17626 ft 391 kts 291°
2026-05-04 04:21 47.54266 18.31607 18125 ft 394 kts 291°
2026-05-04 04:21 47.55199 18.27826 18576 ft 396 kts 291°
2026-05-04 04:21 47.56145 18.23999 18987 ft 398 kts 291°
2026-05-04 04:22 47.57100 18.20135 19400 ft 400 kts 291°
2026-05-04 04:22 47.58046 18.16294 19834 ft 402 kts 291°
2026-05-04 04:22 47.59001 18.12396 20255 ft 404 kts 291°
2026-05-04 04:22 47.59958 18.08471 20677 ft 406 kts 291°
2026-05-04 04:23 47.60920 18.04523 21091 ft 408 kts 291°
2026-05-04 04:23 47.61561 18.01902 21370 ft 409 kts 291°
2026-05-04 04:23 47.62859 17.96586 21911 ft 412 kts 291°
2026-05-04 04:23 47.63504 17.93933 22186 ft 413 kts 291°
2026-05-04 04:24 47.64477 17.89904 22585 ft 415 kts 291°
2026-05-04 04:24 47.65452 17.85862 22982 ft 417 kts 291°
2026-05-04 04:24 47.66432 17.81805 23379 ft 419 kts 291°
2026-05-04 04:24 47.67418 17.77717 23749 ft 422 kts 291°
2026-05-04 04:25 47.68406 17.73607 24077 ft 424 kts 291°
2026-05-04 04:25 47.69392 17.69483 24410 ft 425 kts 291°
2026-05-04 04:25 47.70378 17.65331 24747 ft 427 kts 291°
2026-05-04 04:25 47.71366 17.61157 25073 ft 429 kts 291°
2026-05-04 04:26 47.72357 17.56982 25402 ft 430 kts 291°
2026-05-04 04:26 47.73355 17.52780 25724 ft 432 kts 291°
2026-05-04 04:26 47.74353 17.48578 26047 ft 433 kts 291°
2026-05-04 04:26 47.75360 17.44338 26370 ft 435 kts 291°
2026-05-04 04:27 47.76369 17.40087 26688 ft 436 kts 291°
2026-05-04 04:27 47.77377 17.35828 26997 ft 438 kts 291°
2026-05-04 04:27 47.78386 17.31544 27315 ft 440 kts 291°
2026-05-04 04:27 47.79394 17.27252 27625 ft 441 kts 291°
2026-05-04 04:28 47.80404 17.22939 27927 ft 443 kts 291°
2026-05-04 04:28 47.81419 17.18599 28229 ft 444 kts 291°
2026-05-04 04:28 47.82489 17.14293 28509 ft 444 kts 296°
2026-05-04 04:28 47.83937 17.10241 28779 ft 444 kts 304°
2026-05-04 04:29 47.85782 17.06560 29025 ft 443 kts 311°
2026-05-04 04:29 47.87754 17.03018 29273 ft 445 kts 311°
2026-05-04 04:29 47.89625 16.99645 29492 ft 446 kts 311°
2026-05-04 04:29 47.90891 16.97352 29636 ft 447 kts 310°
2026-05-04 04:30 47.92720 16.94026 29896 ft 447 kts 310°
2026-05-04 04:30 47.94689 16.90438 30199 ft 446 kts 310°
2026-05-04 04:30 47.96650 16.86863 30464 ft 445 kts 310°
2026-05-04 04:30 47.98605 16.83295 30719 ft 444 kts 310°
2026-05-04 04:31 48.00561 16.79726 30976 ft 444 kts 310°
2026-05-04 04:31 48.02516 16.76153 31219 ft 444 kts 310°
2026-05-04 04:31 48.04465 16.72584 31467 ft 443 kts 310°
2026-05-04 04:31 48.06413 16.69017 31708 ft 443 kts 310°
2026-05-04 04:32 48.08364 16.65438 31960 ft 443 kts 310°
2026-05-04 04:32 48.10308 16.61869 32212 ft 443 kts 310°
2026-05-04 04:32 48.12254 16.58294 32470 ft 442 kts 310°
2026-05-04 04:32 48.14194 16.54726 32715 ft 442 kts 310°
2026-05-04 04:33 48.16134 16.51151 32954 ft 442 kts 310°
2026-05-04 04:33 48.18070 16.47577 33197 ft 441 kts 309°
2026-05-04 04:33 48.19977 16.44053 33433 ft 441 kts 309°
2026-05-04 04:33 48.21908 16.40480 33685 ft 441 kts 309°
2026-05-04 04:34 48.23837 16.36903 33930 ft 440 kts 309°
2026-05-04 04:34 48.25762 16.33329 34019 ft 438 kts 309°
2026-05-04 04:34 48.29575 16.26234 34032 ft 435 kts 309°
2026-05-04 04:35 48.33372 16.19154 34034 ft 435 kts 309°
2026-05-04 04:35 48.37164 16.12067 34030 ft 435 kts 309°
2026-05-04 04:36 48.40954 16.04966 34031 ft 435 kts 309°
2026-05-04 04:36 48.44738 15.97848 34040 ft 435 kts 309°
2026-05-04 04:37 48.52296 15.83577 34040 ft 436 kts 309°
2026-05-04 04:38 48.56068 15.76426 34040 ft 436 kts 309°
2026-05-04 04:38 48.59843 15.69262 34047 ft 436 kts 308°
2026-05-04 04:39 48.63609 15.62086 34052 ft 436 kts 308°
2026-05-04 04:39 48.67377 15.54897 34046 ft 436 kts 308°
2026-05-04 04:40 48.71130 15.47692 34057 ft 435 kts 308°
2026-05-04 04:40 48.74872 15.40487 34053 ft 435 kts 308°
2026-05-04 04:41 48.78618 15.33285 34060 ft 435 kts 308°
2026-05-04 04:41 48.82332 15.26138 34046 ft 434 kts 308°
2026-05-04 04:42 48.86060 15.18923 34059 ft 434 kts 308°
2026-05-04 04:42 48.89772 15.11701 34042 ft 433 kts 308°
2026-05-04 04:43 48.93413 15.04399 34052 ft 433 kts 307°
2026-05-04 04:43 48.96980 14.97020 34043 ft 433 kts 307°
2026-05-04 04:44 49.00540 14.89625 34051 ft 433 kts 307°
2026-05-04 04:44 49.04116 14.82254 34046 ft 432 kts 307°
2026-05-04 04:45 49.07689 14.74892 34041 ft 432 kts 307°
2026-05-04 04:47 49.20136 14.49006 34018 ft 432 kts 307°
2026-05-04 04:47 49.23686 14.41590 34029 ft 432 kts 307°
2026-05-04 04:48 49.27222 14.34171 34034 ft 432 kts 307°
2026-05-04 04:49 49.36054 14.15547 34025 ft 432 kts 306°
2026-05-04 04:49 49.39582 14.08083 34024 ft 432 kts 306°
2026-05-04 04:50 49.43080 14.00647 34024 ft 432 kts 306°
2026-05-04 04:50 49.46600 13.93147 34022 ft 433 kts 306°
2026-05-04 04:51 49.50144 13.85574 34020 ft 433 kts 306°
2026-05-04 04:51 49.53639 13.78082 34025 ft 433 kts 306°
2026-05-04 04:52 49.57147 13.70541 34028 ft 433 kts 306°
2026-05-04 04:52 49.60657 13.62985 34026 ft 433 kts 306°
2026-05-04 04:53 49.64159 13.55418 34035 ft 434 kts 305°
2026-05-04 04:53 49.67663 13.47825 34034 ft 434 kts 305°
2026-05-04 04:54 49.71160 13.40213 34039 ft 434 kts 305°
2026-05-04 04:54 49.74657 13.32586 34042 ft 435 kts 305°
2026-05-04 04:55 49.78148 13.24954 34040 ft 435 kts 305°
2026-05-04 04:55 49.81643 13.17297 34034 ft 435 kts 305°
2026-05-04 04:56 49.84750 13.10470 34034 ft 435 kts 305°
2026-05-04 04:56 49.88249 13.02738 34023 ft 435 kts 305°
2026-05-04 04:57 49.91710 12.95094 34025 ft 435 kts 304°
2026-05-04 04:57 49.95188 12.87406 34029 ft 436 kts 304°
2026-05-04 04:58 49.98664 12.79686 34032 ft 436 kts 304°
2026-05-04 04:58 50.02125 12.71955 34039 ft 436 kts 304°
2026-05-04 04:59 50.05581 12.64215 34033 ft 436 kts 304°
2026-05-04 04:59 50.09033 12.56467 34032 ft 435 kts 304°
2026-05-04 05:00 50.12484 12.48712 34024 ft 435 kts 304°
2026-05-04 05:01 50.17641 12.37068 34006 ft 434 kts 303°
2026-05-04 05:01 50.20271 12.28626 34016 ft 434 kts 289°
2026-05-04 05:02 50.22305 12.19740 34029 ft 435 kts 290°
2026-05-04 05:02 50.24344 12.10834 34035 ft 435 kts 289°
2026-05-04 05:03 50.26379 12.01935 34043 ft 435 kts 289°
2026-05-04 05:04 50.30463 11.84117 34049 ft 435 kts 289°
2026-05-04 05:04 50.32496 11.75194 34044 ft 435 kts 289°
2026-05-04 05:06 50.40538 11.39571 34048 ft 434 kts 288°
2026-05-04 05:07 50.42527 11.30645 34044 ft 433 kts 288°
2026-05-04 05:07 50.44515 11.21710 34036 ft 433 kts 288°
2026-05-04 05:09 50.53038 10.82837 34009 ft 437 kts 287°
2026-05-04 05:10 50.55047 10.73813 33890 ft 438 kts 288°
2026-05-04 05:10 50.56064 10.69342 32454 ft 438 kts 288°
2026-05-04 05:10 50.57104 10.64785 30584 ft 446 kts 288°
2026-05-04 05:11 50.58146 10.60219 29082 ft 442 kts 288°
2026-05-04 05:11 50.59175 10.55710 27699 ft 435 kts 288°
2026-05-04 05:11 50.60177 10.51309 26942 ft 416 kts 288°
2026-05-04 05:11 50.61122 10.47155 26582 ft 390 kts 288°
2026-05-04 05:12 50.62008 10.43236 26102 ft 371 kts 287°
2026-05-04 05:12 50.62863 10.39427 25640 ft 370 kts 287°
2026-05-04 05:12 50.63688 10.35581 25179 ft 370 kts 282°
2026-05-04 05:12 50.64121 10.31672 24733 ft 366 kts 271°
2026-05-04 05:13 50.64078 10.27667 24287 ft 365 kts 262°
2026-05-04 05:13 50.63577 10.23787 23862 ft 360 kts 251°
2026-05-04 05:13 50.62648 10.20152 23400 ft 356 kts 242°
2026-05-04 05:13 50.61466 10.16746 22963 ft 353 kts 240°
2026-05-04 05:14 50.60290 10.13367 22558 ft 350 kts 240°
2026-05-04 05:14 50.59130 10.10021 22162 ft 347 kts 240°
2026-05-04 05:14 50.57974 10.06687 21759 ft 345 kts 240°
2026-05-04 05:14 50.56825 10.03386 21365 ft 343 kts 240°
2026-05-04 05:15 50.55700 10.00156 20968 ft 340 kts 240°
2026-05-04 05:15 50.54576 9.96895 20572 ft 338 kts 243°
2026-05-04 05:15 50.53720 9.93465 20153 ft 336 kts 252°
2026-05-04 05:15 50.53096 9.89936 19746 ft 334 kts 252°
2026-05-04 05:16 50.52469 9.86435 19327 ft 332 kts 252°
2026-05-04 05:16 50.51841 9.82961 18918 ft 329 kts 252°
2026-05-04 05:16 50.51215 9.79510 18501 ft 327 kts 252°
2026-05-04 05:16 50.50595 9.76084 18046 ft 325 kts 252°
2026-05-04 05:17 50.49980 9.72680 17613 ft 323 kts 252°
2026-05-04 05:17 50.49385 9.69290 17182 ft 321 kts 252°
2026-05-04 05:17 50.48806 9.65918 16744 ft 319 kts 252°
2026-05-04 05:17 50.48121 9.62625 16316 ft 315 kts 244°
2026-05-04 05:18 50.47025 9.59680 15874 ft 312 kts 232°
2026-05-04 05:18 50.45549 9.57205 15466 ft 309 kts 220°
2026-05-04 05:18 50.43782 9.55306 15053 ft 308 kts 208°
2026-05-04 05:18 50.41890 9.53828 14641 ft 307 kts 207°
2026-05-04 05:19 50.39957 9.52333 14214 ft 305 kts 207°
2026-05-04 05:19 50.38081 9.50882 13792 ft 304 kts 207°
2026-05-04 05:19 50.36193 9.49422 13347 ft 302 kts 207°
2026-05-04 05:19 50.34318 9.47973 12927 ft 300 kts 207°
2026-05-04 05:20 50.32448 9.46531 12522 ft 298 kts 207°
2026-05-04 05:20 50.30590 9.45094 12107 ft 296 kts 207°
2026-05-04 05:20 50.28745 9.43669 11698 ft 294 kts 207°
2026-05-04 05:20 50.26986 9.42079 11301 ft 292 kts 217°
2026-05-04 05:21 50.25519 9.39965 10906 ft 289 kts 230°
2026-05-04 05:21 50.24388 9.37390 10517 ft 287 kts 242°
2026-05-04 05:21 50.23646 9.34553 10315 ft 278 kts 249°
2026-05-04 05:21 50.23001 9.31728 10059 ft 272 kts 249°
2026-05-04 05:22 50.22361 9.28964 9872 ft 270 kts 249°
2026-05-04 05:22 50.21719 9.26204 9754 ft 270 kts 249°
2026-05-04 05:22 50.21078 9.23456 9601 ft 269 kts 249°
2026-05-04 05:22 50.20436 9.20703 9399 ft 270 kts 250°
2026-05-04 05:23 50.19795 9.17941 8950 ft 270 kts 250°
2026-05-04 05:23 50.19158 9.15190 8491 ft 271 kts 250°
2026-05-04 05:23 50.18521 9.12442 8080 ft 269 kts 250°
2026-05-04 05:23 50.17882 9.09694 7718 ft 267 kts 250°
2026-05-04 05:24 50.17254 9.07005 7352 ft 266 kts 250°
2026-05-04 05:24 50.16619 9.04293 6975 ft 265 kts 250°
2026-05-04 05:24 50.15999 9.01652 6827 ft 254 kts 250°
2026-05-04 05:24 50.15403 8.99107 6578 ft 249 kts 250°
2026-05-04 05:25 50.14813 8.96591 6365 ft 243 kts 250°
2026-05-04 05:25 50.14246 8.94177 6064 ft 240 kts 250°
2026-05-04 05:25 50.13668 8.91745 5822 ft 232 kts 249°
2026-05-04 05:25 50.13117 8.89415 5506 ft 227 kts 250°
2026-05-04 05:26 50.12579 8.87129 5189 ft 223 kts 249°
2026-05-04 05:26 50.12057 8.84911 4898 ft 219 kts 250°
2026-05-04 05:26 50.11539 8.82711 4575 ft 216 kts 249°
2026-05-04 05:26 50.11026 8.80532 4269 ft 213 kts 249°
2026-05-04 05:27 50.10520 8.78388 3959 ft 211 kts 249°
2026-05-04 05:28 50.07313 8.64843 2078 ft 154 kts 249°
2026-05-04 05:29 50.06946 8.63300 1849 ft 150 kts 249°
2026-05-04 05:29 50.06585 8.61780 1638 ft 150 kts 249°
2026-05-04 05:29 50.06222 8.60256 1412 ft 151 kts 249°
2026-05-04 05:29 50.05856 8.58721 1186 ft 152 kts 249°
2026-05-04 05:31 50.03869 8.50870 324 ft 25 kts 216°
2026-05-04 05:31 50.03781 8.50876 330 ft 8 kts 107°
2026-05-04 05:32 50.03758 8.50951 330 ft 10 kts 117°
2026-05-04 05:32 50.03718 8.51075 338 ft 15 kts 116°
2026-05-04 05:32 50.03668 8.51236 348 ft 16 kts 116°
2026-05-04 05:33 50.03581 8.51508 359 ft 13 kts 116°
2026-05-04 05:33 50.03539 8.51643 356 ft 15 kts 116°
2026-05-04 05:33 50.03511 8.51801 359 ft 16 kts 85°
2026-05-04 05:33 50.03525 8.51980 348 ft 18 kts 83°
2026-05-04 05:34 50.03540 8.52171 342 ft 16 kts 83°
2026-05-04 05:34 50.03562 8.52358 340 ft 19 kts 69°
2026-05-04 05:34 50.03595 8.52540 341 ft 17 kts 87°
2026-05-04 05:34 50.03618 8.52721 340 ft 18 kts 69°
2026-05-04 05:35 50.03603 8.52874 337 ft 15 kts 138°
2026-05-04 05:35 50.03583 8.53014 336 ft 10 kts 103°
2026-05-04 05:35 50.03536 8.53101 337 ft 11 kts 114°
2026-05-04 05:35 50.03556 8.53219 338 ft 12 kts 69°
2026-05-04 05:36 50.03586 8.53341 336 ft 13 kts 69°
2026-05-04 05:36 50.03619 8.53472 340 ft 13 kts 70°
2026-05-04 05:36 50.03652 8.53613 349 ft 14 kts 68°
2026-05-04 05:36 50.03689 8.53760 346 ft 15 kts 69°
2026-05-04 05:37 50.03721 8.53897 349 ft 13 kts 70°
2026-05-04 05:37 50.03752 8.54029 352 ft 13 kts 70°
2026-05-04 05:37 50.03780 8.54141 355 ft 1 kts 69°
2026-05-04 05:38 50.03783 8.54155 353 ft 2 kts 70°
2026-05-04 05:38 50.03783 8.54173 350 ft 1 kts 99°
2026-05-04 05:38 50.03773 8.54186 348 ft 4 kts 138°
2026-05-04 05:38 50.03755 8.54197 355 ft 5 kts 158°
2026-05-04 05:39 50.03725 8.54216 348 ft 4 kts 159°
2026-05-04 05:39 50.03718 8.54219 346 ft 0 kts 159°